Location: Wyoming Infrared Observatory
(41.0971°N, 105.9765°W)
Time: 15:33:24
(UTC-06:00)

Amateur Radio Satellites - All Passes

Search period start: 22 July 2014 15:03
Search period end: 23 July 2014 15:03
Location: Wyoming Infrared Observatory, 41.0971°N, 105.9765°W

Satellite Date Start Highest point End Downlink Frequencies (MHz)
Time Altitude Azimuth
Uribyol 2 22 Jul 15:04:30 15:09:19 38° 262° (W) 15:14:09 436.500 FM
RS-15 22 Jul 15:06:39 15:17:47 79° 118° (ESE) 15:28:43 29.354 - 29.394 USB, Beacon 29.352 USB
AO-7 22 Jul 15:07:32 15:14:31 31° 57° (ENE) 15:21:31 29.400 - 29.500 MHz
KITSAT 1 22 Jul 15:09:24 15:15:39 24° 36° (NE) 15:21:52 435.175 FM
AO-Echo 22 Jul 15:23:36 15:28:02 27° 266° (W) 15:32:32 ?
UOSAT-12 22 Jul 15:26:06 15:28:53 16° 109° (ESE) 15:31:42 437.025 FM, 437.400 FM
JAS-1B 22 Jul 15:27:57 15:36:12 67° 259° (W) 15:45:49 435.800 - 435.900 CW/SSB
Uosat F 22 Jul 15:35:46 15:40:03 29° 66° (ENE) 15:44:21 435.120 FM
TMSAT-1 22 Jul 16:02:12 16:07:10 41° 262° (W) 16:12:10 436.925 FM
OPAL 22 Jul 16:02:37 16:05:48 17° 94° (E) 16:09:01 ?
SO-50 22 Jul 16:05:17 16:08:45 21° 317° (NW) 16:12:15 436.795 FM
Gurwin Techsat 1B 22 Jul 16:23:24 16:27:12 20° 268° (W) 16:31:01 435.225 FM
JAS-2 22 Jul 16:27:24 16:30:34 13° 53° (NE) 16:33:42 435.800 - 435.900 CW/SSB, 435.910 FM
AO-7 22 Jul 16:58:29 17:06:45 64° 256° (WSW) 17:15:05 29.400 - 29.500 MHz
UOSAT-12 22 Jul 17:03:59 17:08:31 59° 306° (NW) 17:13:10 437.025 FM, 437.400 FM
KITSAT 1 22 Jul 17:04:11 17:12:20 83° 59° (ENE) 17:20:23 435.175 FM
Uosat F 22 Jul 17:14:10 17:18:43 34° 263° (W) 17:23:18 435.120 FM
RS-15 22 Jul 17:21:27 17:31:16 35° 324° (NW) 17:41:04 29.354 - 29.394 USB, Beacon 29.352 USB
JAS-1B 22 Jul 17:25:09 17:28:41 13° 281° (W) 17:32:24 435.800 - 435.900 CW/SSB
OPAL 22 Jul 17:40:05 17:45:01 58° 290° (WNW) 17:50:00 ?
Hamsat 22 Jul 17:49:41 17:53:35 40° 72° (ENE) 17:57:31 145.90 MHz
Saudisat 1A 22 Jul 18:01:31 18:05:44 42° 51° (NE) 18:09:54 436.775 MHz
JAS-2 22 Jul 18:06:31 18:14:12 61° 71° (ENE) 18:21:39 435.800 - 435.900 CW/SSB, 435.910 FM
SO-67 22 Jul 18:23:16 18:24:37 12° 66° (ENE) 18:25:59 435.3500 MHz FM
UOSAT-12 22 Jul 18:48:21 18:49:42 11° 326° (NNW) 18:51:03 437.025 FM, 437.400 FM
AO-7 22 Jul 18:59:58 19:01:03 10° 274° (W) 19:02:09 29.400 - 29.500 MHz
KITSAT 1 22 Jul 19:01:13 19:06:44 21° 258° (WSW) 19:12:15 435.175 FM
Hamsat 22 Jul 19:27:07 19:29:44 16° 268° (W) 19:32:22 145.90 MHz
HO-68 22 Jul 19:38:15 19:43:11 20° 56° (NE) 19:48:05 435.675 MHz FM
RS-15 22 Jul 19:40:47 19:48:14 20° 358° (N) 19:55:45 29.354 - 29.394 USB, Beacon 29.352 USB
Saudisat 1A 22 Jul 19:41:45 19:45:02 21° 248° (WSW) 19:48:19 436.775 MHz
STRAND 1 22 Jul 19:51:38 19:56:46 74° 103° (ESE) 20:01:51 ?
JAS-2 22 Jul 19:52:53 19:59:29 29° 267° (W) 20:05:59 435.800 - 435.900 CW/SSB, 435.910 FM
SO-67 22 Jul 19:54:03 19:57:19 39° 262° (W) 20:00:37 435.3500 MHz FM
HO-68 22 Jul 21:22:50 21:30:02 83° 254° (WSW) 21:37:15 435.675 MHz FM
STRAND 1 22 Jul 21:32:37 21:35:19 15° 300° (WNW) 21:38:02 ?
RS-15 22 Jul 21:55:54 22:05:28 32° 33° (NNE) 22:15:12 29.354 - 29.394 USB, Beacon 29.352 USB
Oscar 11 22 Jul 22:01:19 22:05:38 86° 76° (ENE) 22:09:58 145.825 FM, Beacon 2401.500 USB
MaSat-1 22 Jul 22:02:13 22:04:05 13° 99° (E) 22:06:05 437.345 MHz
FUNcube-1 22 Jul 22:03:59 22:07:56 33° 71° (ENE) 22:11:48 145.950 - 145.970 MHz USB
SO-50 22 Jul 22:55:06 22:59:41 47° 52° (NE) 23:04:19 436.795 FM
AO-40 22 Jul 23:00:08 04:40:24 38° 182° (S) 10:21:13 Beacon 2401.320
HO-68 22 Jul 23:15:18 23:18:42 14° 272° (W) 23:22:06 435.675 MHz FM
MaSat-1 22 Jul 23:36:55 23:40:43 51° 300° (WNW) 23:45:11 437.345 MHz
FUNcube-1 22 Jul 23:40:58 23:44:22 22° 266° (W) 23:47:44 145.950 - 145.970 MHz USB
UOSAT-12 22 Jul 23:54:28 23:57:45 18° 41° (NE) 00:01:01 437.025 FM, 437.400 FM
RS-15 23 Jul 00:08:15 00:19:21 89° 239° (WSW) 00:30:51 29.354 - 29.394 USB, Beacon 29.352 USB
SO-50 23 Jul 00:36:20 00:39:58 22° 249° (WSW) 00:43:36 436.795 FM
Lituanica SAT-1 23 Jul 00:58:55 01:01:05 82° 143° (SE) 01:03:16 437.275 MHz beacon
UOSAT-12 23 Jul 01:33:42 01:38:25 71° 240° (WSW) 01:43:03 437.025 FM, 437.400 FM
ISS 23 Jul 01:42:02 01:44:58 29° 135° (SE) 01:47:55 145.800 FM
Sapphire 23 Jul 01:44:56 01:49:26 27° 108° (ESE) 01:53:57 437.095 MHz 1200 baud AX-25 AFSK
AO-Echo 23 Jul 01:54:15 01:56:00 12° 88° (E) 01:57:43 ?
PCSat 23 Jul 02:18:04 02:23:21 58° 114° (ESE) 02:28:41 145.825 MHz
Oscar 19 23 Jul 02:21:34 02:26:33 48° 99° (E) 02:31:32 437.125 CW, 437.150 USB
RS-15 23 Jul 02:22:32 02:30:11 22° 259° (W) 02:38:03 29.354 - 29.394 USB, Beacon 29.352 USB
Lituanica SAT-1 23 Jul 02:33:26 02:34:18 12° 341° (NNW) 02:35:10 437.275 MHz beacon
Oscar 16 23 Jul 02:48:39 02:53:50 90° 284° (WNW) 02:59:00 437.025 USB, Beacon 2401.1428
ITAMSAT 1 23 Jul 02:55:46 03:00:46 46° 99° (E) 03:05:42 435.822 SSB
Gurwin Techsat 1B 23 Jul 02:58:56 03:02:52 21° 93° (E) 03:06:46 435.225 FM
AO-27 23 Jul 03:13:04 03:18:16 69° 102° (ESE) 03:23:25 436.795 MHz FM
JAS-1B 23 Jul 03:14:30 03:23:47 49° 96° (E) 03:31:54 435.800 - 435.900 CW/SSB
Uribyol 2 23 Jul 03:16:50 03:22:02 78° 103° (ESE) 03:27:10 436.500 FM
OPAL 23 Jul 03:17:09 03:21:26 30° 65° (ENE) 03:25:44 ?
ISS 23 Jul 03:18:30 03:21:38 36° 332° (NNW) 03:24:47 145.800 FM
Sapphire 23 Jul 03:27:31 03:32:38 42° 306° (NW) 03:37:47 437.095 MHz 1200 baud AX-25 AFSK
AO-Echo 23 Jul 03:30:13 03:35:25 79° 285° (WNW) 03:40:24 ?
Oscar 19 23 Jul 04:01:43 04:05:33 22° 296° (WNW) 04:09:24 437.125 CW, 437.150 USB
PCSat 23 Jul 04:02:53 04:07:09 23° 313° (NW) 04:11:27 145.825 MHz
TMSAT-1 23 Jul 04:17:41 04:23:01 81° 103° (ESE) 04:28:18 436.925 FM
Oscar 16 23 Jul 04:30:32 04:32:25 12° 301° (WNW) 04:34:18 437.025 USB, Beacon 2401.1428
ITAMSAT 1 23 Jul 04:35:59 04:39:56 23° 296° (WNW) 04:43:52 435.822 SSB
Gurwin Techsat 1B 23 Jul 04:37:58 04:43:05 49° 289° (WNW) 04:48:10 435.225 FM
AO-27 23 Jul 04:54:09 04:57:12 16° 299° (WNW) 05:00:14 436.795 MHz FM
OPAL 23 Jul 04:55:53 05:00:15 31° 261° (W) 05:04:39 ?
ISS 23 Jul 04:57:06 04:59:06 15° 352° (N) 05:01:07 145.800 FM
Uribyol 2 23 Jul 04:58:14 05:00:50 14° 300° (WNW) 05:03:25 436.500 FM
AO-7 23 Jul 05:00:14 05:08:10 46° 100° (E) 05:16:00 29.400 - 29.500 MHz
JAS-1B 23 Jul 05:05:04 05:14:04 45° 297° (WNW) 05:22:08 435.800 - 435.900 CW/SSB
AO-Echo 23 Jul 05:12:27 05:13:14 10° 303° (WNW) 05:14:00 ?
Uosat F 23 Jul 05:21:20 05:26:23 75° 103° (ESE) 05:31:23 435.120 FM
STRAND 1 23 Jul 05:31:32 05:34:05 14° 60° (ENE) 05:36:38 ?
Lituanica SAT-1 23 Jul 05:40:51 05:41:49 12° 20° (NNE) 05:42:47 437.275 MHz beacon
TMSAT-1 23 Jul 05:59:37 06:02:14 14° 301° (WNW) 06:04:50 436.925 FM
Oscar 10/S400 23 Jul 06:10:53 07:30:29 37° 241° (WSW) 11:51:28 145.825 - 145.975 CW/USB, Beacon 145.810 USB
ISS 23 Jul 06:34:38 06:36:52 16° 12° (NNE) 06:39:07 145.800 FM
AO-7 23 Jul 06:53:12 07:00:51 42° 299° (WNW) 07:08:27 29.400 - 29.500 MHz
JAS-1B 23 Jul 06:59:22 07:01:53 11° 319° (NW) 07:04:21 435.800 - 435.900 CW/SSB
Uosat F 23 Jul 07:02:00 07:04:32 14° 300° (WNW) 07:07:03 435.120 FM
JAS-2 23 Jul 07:02:43 07:08:47 48° 98° (E) 07:14:09 435.800 - 435.900 CW/SSB, 435.910 FM
STRAND 1 23 Jul 07:07:27 07:12:36 79° 257° (WSW) 07:17:47 ?
Hamsat 23 Jul 07:10:54 07:15:12 88° 103° (ESE) 07:19:31 145.90 MHz
Lituanica SAT-1 23 Jul 07:12:48 07:15:00 76° 217° (SW) 07:17:11 437.275 MHz beacon
SO-67 23 Jul 07:19:14 07:21:02 14° 92° (E) 07:22:50 435.3500 MHz FM
KITSAT 1 23 Jul 07:31:51 07:39:44 60° 114° (ESE) 07:47:40 435.175 FM
MaSat-1 23 Jul 07:55:02 08:00:05 41° 58° (ENE) 08:04:59 437.345 MHz
ISS 23 Jul 08:10:54 08:14:13 51° 32° (NNE) 08:17:30 145.800 FM
Saudisat 1A 23 Jul 08:11:47 08:12:25 10° 107° (ESE) 08:13:04 436.775 MHz
JAS-2 23 Jul 08:48:24 08:53:27 26° 299° (WNW) 08:58:04 435.800 - 435.900 CW/SSB, 435.910 FM
SO-67 23 Jul 08:51:05 08:54:13 32° 288° (WNW) 08:57:21 435.3500 MHz FM
HO-68 23 Jul 08:52:17 08:56:58 18° 91° (E) 09:01:36 435.675 MHz FM
KITSAT 1 23 Jul 09:28:14 09:35:32 36° 315° (NW) 09:42:53 435.175 FM
MaSat-1 23 Jul 09:32:48 09:37:16 28° 255° (WSW) 09:41:35 437.345 MHz
PANSAT 23 Jul 09:34:26 09:36:05 12° 178° (S) 09:37:45 not established
Saudisat 1A 23 Jul 09:46:55 09:51:20 81° 303° (WNW) 09:55:47 436.775 MHz
ISS 23 Jul 09:48:15 09:50:42 19° 228° (SW) 09:53:08 145.800 FM
Oscar 11 23 Jul 09:50:20 09:52:59 16° 92° (E) 09:55:37 145.825 FM, Beacon 2401.500 USB
Sapphire 23 Jul 10:32:26 10:36:53 25° 48° (NE) 10:41:17 437.095 MHz 1200 baud AX-25 AFSK
HO-68 23 Jul 10:38:13 10:45:23 80° 288° (WNW) 10:52:30 435.675 MHz FM
PCSat 23 Jul 11:06:07 11:11:21 46° 55° (NE) 11:16:32 145.825 MHz
Oscar 11 23 Jul 11:25:16 11:29:24 45° 288° (WNW) 11:33:31 145.825 FM, Beacon 2401.500 USB
FUNcube-1 23 Jul 11:29:01 11:33:11 71° 102° (ESE) 11:37:20 145.950 - 145.970 MHz USB
Saudisat 1A 23 Jul 11:29:38 11:31:39 13° 322° (NW) 11:33:40 436.775 MHz
KITSAT 1 23 Jul 11:30:22 11:33:50 13° 342° (NNW) 11:37:19 435.175 FM
Sapphire 23 Jul 12:15:20 12:20:37 53° 246° (WSW) 12:25:51 437.095 MHz 1200 baud AX-25 AFSK
JAS-1B 23 Jul 12:16:28 12:17:35 10° 40° (NE) 12:18:43 435.800 - 435.900 CW/SSB
HO-68 23 Jul 12:27:57 12:31:59 16° 307° (NW) 12:36:00 435.675 MHz FM
Oscar 16 23 Jul 12:28:46 12:31:56 17° 62° (ENE) 12:35:06 437.025 USB, Beacon 2401.1428
RS-15 23 Jul 12:29:41 12:31:58 11° 95° (E) 12:34:14 29.354 - 29.394 USB, Beacon 29.352 USB
PCSat 23 Jul 12:50:06 12:54:28 25° 252° (WSW) 12:58:49 145.825 MHz
AO-27 23 Jul 12:54:57 12:57:32 14° 59° (ENE) 13:00:08 436.795 MHz FM
Uribyol 2 23 Jul 12:58:03 13:01:00 15° 60° (ENE) 13:03:57 436.500 FM
AO-Echo 23 Jul 13:06:08 13:09:34 18° 62° (ENE) 13:13:01 ?
FUNcube-1 23 Jul 13:08:22 13:09:00 10° 298° (WNW) 13:09:38 145.950 - 145.970 MHz USB
SO-50 23 Jul 13:12:25 13:14:42 14° 108° (ESE) 13:16:59 436.795 FM
KITSAT 1 23 Jul 13:30:51 13:33:44 12° 14° (NNE) 13:36:37 435.175 FM
Oscar 19 23 Jul 13:38:22 13:43:26 69° 74° (ENE) 13:48:32 437.125 CW, 437.150 USB
JAS-1B 23 Jul 13:57:23 14:05:17 42° 62° (ENE) 14:14:05 435.800 - 435.900 CW/SSB
TMSAT-1 23 Jul 14:01:07 14:04:23 17° 61° (ENE) 14:07:39 436.925 FM
Oscar 16 23 Jul 14:05:41 14:10:45 63° 259° (WSW) 14:15:51 437.025 USB, Beacon 2401.1428
AO-7 23 Jul 14:11:55 14:15:51 14° 45° (NE) 14:19:46 29.400 - 29.500 MHz
ITAMSAT 1 23 Jul 14:13:36 14:18:47 70° 73° (ENE) 14:23:59 435.822 SSB
Gurwin Techsat 1B 23 Jul 14:19:46 14:24:27 33° 67° (ENE) 14:29:09 435.225 FM
RS-15 23 Jul 14:31:00 14:41:54 62° 114° (ESE) 14:52:34 29.354 - 29.394 USB, Beacon 29.352 USB
AO-27 23 Jul 14:31:08 14:36:22 80° 257° (WSW) 14:41:37 436.795 MHz FM
Uribyol 2 23 Jul 14:34:40 14:39:52 72° 257° (WSW) 14:45:05 436.500 FM
AO-Echo 23 Jul 14:42:34 14:47:46 64° 259° (W) 14:53:05 ?
SO-50 23 Jul 14:50:16 14:54:41 63° 305° (NW) 14:59:13 436.795 FM
